Location: Bezawada
(16.5136°N, 80.6297°E)
Time: 18:11:15
(UTC+00:00)

Cosmos 2285 Rocket - Pass Details

Date: 27 February 2020
Orbit: 970 x 999 km, 74.0° (Epoch: 28 March)

Event Time Altitude Azimuth Distance (km) Brightness Sun altitude
Rises 13:14:22 0° 355° (N) 3,696 7.0 -8.1°
Reaches altitude 10° 13:17:00 10° 0° (N) 2,750 6.3 -8.7°
Maximum altitude 13:23:11 51° 75° (ENE) 1,229 4.2 -10.2°
Drops below altitude 10° 13:29:22 10° 150° (SSE) 2,759 6.1 -11.7°
Sets 13:32:00 0° 155° (SSE) 3,708 6.8 -12.3°
